Time,TemperatureF,DewpointF,PressureIn,WindDirection,WindDirectionDegrees,WindSpeedMPH,WindSpeedGustMPH,Humidity,HourlyPrecipIn,Conditions,Clouds,dailyrainin,SoftwareType,DateUTC
2013-07-28 00:02:00,57.0,52.0,29.95,NNW,342,0.0,0.0,83,0.00,,,0.00,,2013-07-28 04:02:00,
2013-07-28 00:12:00,56.0,51.0,29.95,NNW,342,0.0,0.0,84,0.00,,,0.00,,2013-07-28 04:12:00,
2013-07-28 00:22:00,56.0,52.0,29.95,NNW,342,0.0,0.0,85,0.00,,,0.00,,2013-07-28 04:22:00,
2013-07-28 00:32:00,55.0,51.0,29.95,NNW,342,0.0,0.0,86,0.00,,,0.00,,2013-07-28 04:32:00,
2013-07-28 00:53:00,54.0,50.0,29.95,NNW,342,0.0,0.0,86,0.00,,,0.00,,2013-07-28 04:53:00,
2013-07-28 01:02:00,54.0,50.0,29.95,NNW,342,0.0,0.0,87,0.00,,,0.00,,2013-07-28 05:02:00,
2013-07-28 01:12:00,54.0,50.0,29.95,NNW,342,0.0,0.0,87,0.00,,,0.00,,2013-07-28 05:12:00,
2013-07-28 01:22:00,53.0,49.0,29.95,NNW,342,0.0,0.0,87,0.00,,,0.00,,2013-07-28 05:22:00,
2013-07-28 01:32:00,53.0,49.0,29.95,NNW,342,0.0,0.0,87,0.00,,,0.00,,2013-07-28 05:32:00,
2013-07-28 01:43:00,53.0,50.0,29.95,NNW,342,0.0,0.0,88,0.00,,,0.00,,2013-07-28 05:43:00,
2013-07-28 01:52:00,52.0,49.0,29.95,NNW,342,0.0,0.0,89,0.00,,,0.00,,2013-07-28 05:52:00,
2013-07-28 02:02:00,52.0,49.0,29.95,NNW,342,0.0,0.0,89,0.00,,,0.00,,2013-07-28 06:02:00,
2013-07-28 02:12:00,52.0,49.0,29.95,NNW,342,0.0,1.0,90,0.00,,,0.00,,2013-07-28 06:12:00,
2013-07-28 02:22:00,52.0,49.0,29.95,NNW,342,0.0,0.0,90,0.00,,,0.00,,2013-07-28 06:22:00,
2013-07-28 02:32:00,52.0,49.0,29.95,NNW,342,0.0,0.0,90,0.00,,,0.00,,2013-07-28 06:32:00,
2013-07-28 02:43:00,52.0,49.0,29.94,NNW,342,0.0,0.0,90,0.00,,,0.00,,2013-07-28 06:43:00,
2013-07-28 02:52:00,51.0,48.0,29.94,NNW,342,0.0,0.0,91,0.00,,,0.00,,2013-07-28 06:52:00,
2013-07-28 03:02:00,51.0,48.0,29.94,NNW,342,0.0,0.0,91,0.00,,,0.00,,2013-07-28 07:02:00,
2013-07-28 03:12:00,52.0,49.0,29.94,NNW,342,0.0,0.0,91,0.00,,,0.00,,2013-07-28 07:12:00,
2013-07-28 03:22:00,52.0,49.0,29.94,NNW,342,0.0,0.0,91,0.00,,,0.00,,2013-07-28 07:22:00,
2013-07-28 03:32:00,52.0,49.0,29.94,NNW,342,0.0,0.0,91,0.00,,,0.00,,2013-07-28 07:32:00,
2013-07-28 03:43:00,51.0,48.0,29.94,NNW,342,0.0,0.0,91,0.00,,,0.00,,2013-07-28 07:43:00,
2013-07-28 03:53:00,51.0,48.0,29.94,NNW,342,0.0,0.0,91,0.00,,,0.00,,2013-07-28 07:53:00,
2013-07-28 04:02:00,51.0,49.0,29.94,NNW,342,0.0,0.0,92,0.00,,,0.00,,2013-07-28 08:02:00,
2013-07-28 04:12:00,51.0,49.0,29.94,NNW,342,0.0,0.0,92,0.00,,,0.00,,2013-07-28 08:12:00,
2013-07-28 04:22:00,51.0,49.0,29.93,NNW,342,0.0,0.0,93,0.00,,,0.00,,2013-07-28 08:22:00,
2013-07-28 04:33:00,51.0,49.0,29.93,NNW,342,0.0,1.0,93,0.00,,,0.00,,2013-07-28 08:33:00,
2013-07-28 04:42:00,51.0,49.0,29.93,NNW,342,0.0,1.0,93,0.00,,,0.00,,2013-07-28 08:42:00,
2013-07-28 04:53:00,51.0,49.0,29.93,NNW,342,0.0,0.0,92,0.00,,,0.00,,2013-07-28 08:53:00,
2013-07-28 05:02:00,51.0,49.0,29.93,NNW,342,0.0,0.0,92,0.00,,,0.00,,2013-07-28 09:02:00,
2013-07-28 05:12:00,51.0,49.0,29.93,NNW,342,0.0,0.0,92,0.00,,,0.00,,2013-07-28 09:12:00,
2013-07-28 05:22:00,50.0,48.0,29.93,NNW,342,0.0,0.0,92,0.00,,,0.00,,2013-07-28 09:22:00,
2013-07-28 05:32:00,50.0,48.0,29.93,NNW,342,0.0,0.0,92,0.00,,,0.00,,2013-07-28 09:32:00,
2013-07-28 05:43:00,50.0,48.0,29.93,NNW,342,0.0,0.0,92,0.00,,,0.00,,2013-07-28 09:43:00,
2013-07-28 05:53:00,50.0,48.0,29.94,NNW,342,0.0,0.0,92,0.00,,,0.00,,2013-07-28 09:53:00,
2013-07-28 06:02:00,50.0,48.0,29.94,NNW,342,0.0,0.0,93,0.00,,,0.00,,2013-07-28 10:02:00,
2013-07-28 06:12:00,49.0,47.0,29.95,NNW,342,0.0,0.0,93,0.00,,,0.00,,2013-07-28 10:12:00,
2013-07-28 06:22:00,49.0,47.0,29.95,NNW,342,0.0,0.0,93,0.00,,,0.00,,2013-07-28 10:22:00,
2013-07-28 06:33:00,49.0,47.0,29.95,NNW,342,0.0,0.0,94,0.00,,,0.00,,2013-07-28 10:33:00,
2013-07-28 06:42:00,49.0,47.0,29.95,NNW,342,0.0,0.0,94,0.00,,,0.00,,2013-07-28 10:42:00,
2013-07-28 06:52:00,49.0,47.0,29.95,NNW,342,0.0,0.0,94,0.00,,,0.00,,2013-07-28 10:52:00,
2013-07-28 07:12:00,50.0,49.0,29.96,NNW,342,0.0,0.0,95,0.00,,,0.00,,2013-07-28 11:12:00,
2013-07-28 07:22:00,50.0,49.0,29.96,NNW,342,0.0,0.0,95,0.00,,,0.00,,2013-07-28 11:22:00,
2013-07-28 07:33:00,50.0,49.0,29.96,NNW,342,0.0,0.0,95,0.00,,,0.00,,2013-07-28 11:33:00,
2013-07-28 07:43:00,50.0,49.0,29.97,NNW,342,0.0,0.0,95,0.00,,,0.00,,2013-07-28 11:43:00,
2013-07-28 07:53:00,50.0,49.0,29.97,NNW,342,0.0,0.0,95,0.00,,,0.00,,2013-07-28 11:53:00,
2013-07-28 08:02:00,50.0,49.0,29.96,NNW,342,0.0,0.0,95,0.00,,,0.00,,2013-07-28 12:02:00,
2013-07-28 08:12:00,51.0,50.0,29.96,NNW,342,0.0,0.0,95,0.00,,,0.00,,2013-07-28 12:12:00,
2013-07-28 08:22:00,51.0,50.0,29.96,NNW,342,0.0,0.0,95,0.00,,,0.00,,2013-07-28 12:22:00,
2013-07-28 08:33:00,52.0,51.0,29.97,NNW,342,0.0,0.0,95,0.00,,,0.00,,2013-07-28 12:33:00,
2013-07-28 08:43:00,53.0,52.0,29.97,NNW,342,0.0,0.0,95,0.00,,,0.00,,2013-07-28 12:43:00,
2013-07-28 08:53:00,54.0,52.0,29.96,NNW,342,0.0,0.0,94,0.00,,,0.00,,2013-07-28 12:53:00,
2013-07-28 09:12:00,56.0,54.0,29.96,NNW,342,0.0,0.0,92,0.00,,,0.00,,2013-07-28 13:12:00,
2013-07-28 09:22:00,56.0,53.0,29.96,NNW,342,0.0,0.0,91,0.00,,,0.00,,2013-07-28 13:22:00,
2013-07-28 09:32:00,57.0,54.0,29.96,NNW,342,0.0,0.0,90,0.00,,,0.00,,2013-07-28 13:32:00,
2013-07-28 09:43:00,58.0,55.0,29.96,NNW,342,0.0,0.0,89,0.00,,,0.00,,2013-07-28 13:43:00,
2013-07-28 10:02:00,60.0,55.0,29.96,NNW,342,0.0,0.0,84,0.00,,,0.00,,2013-07-28 14:02:00,
2013-07-28 10:12:00,61.0,55.0,29.96,NNW,342,0.0,0.0,81,0.00,,,0.00,,2013-07-28 14:12:00,
2013-07-28 10:23:00,62.0,55.0,29.96,NNW,342,0.0,0.0,78,0.00,,,0.00,,2013-07-28 14:23:00,
2013-07-28 10:33:00,63.0,55.0,29.96,West,265,0.0,4.0,75,0.00,,,0.00,,2013-07-28 14:33:00,
2013-07-28 10:53:00,65.0,55.0,29.96,WNW,291,0.0,1.0,71,0.00,,,0.00,,2013-07-28 14:53:00,
2013-07-28 11:03:00,66.0,55.0,29.96,NW,315,0.0,5.0,68,0.00,,,0.00,,2013-07-28 15:03:00,
2013-07-28 11:13:00,66.0,54.0,29.95,NW,315,0.0,5.0,66,0.00,,,0.00,,2013-07-28 15:13:00,
2013-07-28 11:22:00,66.0,56.0,29.96,NW,315,0.0,1.0,69,0.00,,,0.00,,2013-07-28 15:22:00,
2013-07-28 11:32:00,68.0,57.0,29.96,NW,315,0.0,2.0,68,0.00,,,0.00,,2013-07-28 15:32:00,
2013-07-28 11:43:00,68.0,55.0,29.96,NW,318,0.0,4.0,64,0.00,,,0.00,,2013-07-28 15:43:00,
2013-07-28 11:53:00,67.0,55.0,29.96,NW,319,0.0,3.0,66,0.00,,,0.00,,2013-07-28 15:53:00,
2013-07-28 12:02:00,68.0,56.0,29.96,NW,326,1.0,6.0,65,0.00,,,0.00,,2013-07-28 16:02:00,
2013-07-28 12:12:00,69.0,57.0,29.96,NW,317,1.0,5.0,65,0.00,,,0.00,,2013-07-28 16:12:00,
2013-07-28 12:22:00,69.0,57.0,29.96,NW,316,0.0,0.0,65,0.00,,,0.00,,2013-07-28 16:22:00,
2013-07-28 12:33:00,68.0,56.0,29.96,NW,316,0.0,6.0,65,0.00,,,0.00,,2013-07-28 16:33:00,
2013-07-28 12:43:00,69.0,56.0,29.95,NW,315,0.0,4.0,64,0.00,,,0.00,,2013-07-28 16:43:00,
2013-07-28 13:02:00,70.0,56.0,29.95,NW,314,1.0,6.0,61,0.00,,,0.00,,2013-07-28 17:02:00,
2013-07-28 13:12:00,70.0,55.0,29.95,NW,306,2.0,4.0,59,0.00,,,0.00,,2013-07-28 17:12:00,
2013-07-28 13:23:00,70.0,55.0,29.95,NW,321,3.0,7.0,60,0.00,,,0.00,,2013-07-28 17:23:00,
2013-07-28 13:32:00,71.0,56.0,29.95,NW,317,0.0,7.0,60,0.00,,,0.00,,2013-07-28 17:32:00,
2013-07-28 13:53:00,71.0,56.0,29.95,NW,315,0.0,5.0,59,0.00,,,0.00,,2013-07-28 17:53:00,
2013-07-28 14:03:00,70.0,55.0,29.95,NW,325,3.0,9.0,60,0.00,,,0.00,,2013-07-28 18:03:00,
2013-07-28 14:12:00,69.0,55.0,29.96,NW,323,0.0,4.0,61,0.00,,,0.00,,2013-07-28 18:12:00,
2013-07-28 14:22:00,70.0,56.0,29.95,NW,320,1.0,5.0,62,0.00,,,0.00,,2013-07-28 18:22:00,
2013-07-28 14:33:00,70.0,57.0,29.96,NW,319,0.0,5.0,63,0.00,,,0.00,,2013-07-28 18:33:00,
2013-07-28 14:43:00,70.0,57.0,29.96,NW,319,0.0,4.0,63,0.00,,,0.00,,2013-07-28 18:43:00,
2013-07-28 14:52:00,70.0,57.0,29.96,NW,319,0.0,4.0,64,0.00,,,0.00,,2013-07-28 18:52:00,
2013-07-28 15:02:00,69.0,56.0,29.96,NW,310,3.0,9.0,63,0.00,,,0.00,,2013-07-28 19:02:00,
2013-07-28 15:12:00,69.0,58.0,29.96,NW,313,0.0,4.0,67,0.00,,,0.00,,2013-07-28 19:12:00,
2013-07-28 15:22:00,69.0,57.0,29.96,NW,313,0.0,1.0,66,0.00,,,0.00,,2013-07-28 19:22:00,
2013-07-28 15:33:00,69.0,56.0,29.96,NNW,327,0.0,4.0,64,0.00,,,0.00,,2013-07-28 19:33:00,
2013-07-28 15:52:00,69.0,57.0,29.96,NNW,327,0.0,3.0,65,0.00,,,0.00,,2013-07-28 19:52:00,
2013-07-28 16:02:00,69.0,57.0,29.96,NNW,327,0.0,1.0,66,0.00,,,0.00,,2013-07-28 20:02:00,
2013-07-28 16:12:00,70.0,58.0,29.96,NNW,337,0.0,3.0,66,0.00,,,0.00,,2013-07-28 20:12:00,
2013-07-28 16:23:00,70.0,57.0,29.96,NNW,337,0.0,1.0,63,0.00,,,0.00,,2013-07-28 20:23:00,
2013-07-28 16:33:00,70.0,58.0,29.97,NNW,337,0.0,0.0,65,0.00,,,0.00,,2013-07-28 20:33:00,
2013-07-28 16:43:00,69.0,56.0,29.97,NNW,337,0.0,3.0,64,0.00,,,0.00,,2013-07-28 20:43:00,
2013-07-28 16:52:00,69.0,55.0,29.97,NNW,337,0.0,3.0,61,0.00,,,0.00,,2013-07-28 20:52:00,
2013-07-28 17:03:00,70.0,56.0,29.97,NNW,337,0.0,3.0,62,0.00,,,0.00,,2013-07-28 21:03:00,
2013-07-28 17:12:00,71.0,56.0,29.97,NNW,336,1.0,4.0,60,0.00,,,0.00,,2013-07-28 21:12:00,
2013-07-28 17:22:00,70.0,55.0,29.97,NNW,335,0.0,4.0,59,0.00,,,0.00,,2013-07-28 21:22:00,
2013-07-28 17:33:00,70.0,56.0,29.97,NNW,334,0.0,3.0,61,0.00,,,0.00,,2013-07-28 21:33:00,
2013-07-28 17:44:00,71.0,56.0,29.98,NNW,329,0.0,5.0,60,0.00,,,0.00,,2013-07-28 21:44:00,
2013-07-28 17:52:00,71.0,56.0,29.98,NNW,329,0.0,1.0,60,0.00,,,0.00,,2013-07-28 21:52:00,
2013-07-28 18:02:00,71.0,58.0,29.98,NNW,329,0.0,0.0,63,0.00,,,0.00,,2013-07-28 22:02:00,
2013-07-28 18:12:00,70.0,57.0,29.98,NNW,329,0.0,1.0,63,0.00,,,0.00,,2013-07-28 22:12:00,
2013-07-28 18:22:00,70.0,56.0,29.98,NNW,329,0.0,0.0,62,0.00,,,0.00,,2013-07-28 22:22:00,
2013-07-28 18:32:00,70.0,56.0,29.98,NNW,329,0.0,0.0,62,0.00,,,0.00,,2013-07-28 22:32:00,
2013-07-28 18:43:00,70.0,56.0,29.98,NNW,333,0.0,0.0,61,0.00,,,0.00,,2013-07-28 22:43:00,
2013-07-28 18:52:00,70.0,56.0,29.98,NNW,333,0.0,0.0,61,0.00,,,0.00,,2013-07-28 22:52:00,
2013-07-28 19:03:00,69.0,56.0,29.99,NNW,333,0.0,0.0,63,0.00,,,0.00,,2013-07-28 23:03:00,
2013-07-28 19:12:00,69.0,56.0,29.99,NNW,333,0.0,0.0,63,0.00,,,0.00,,2013-07-28 23:12:00,
2013-07-28 19:22:00,69.0,56.0,29.99,NNW,333,0.0,0.0,64,0.00,,,0.00,,2013-07-28 23:22:00,
2013-07-28 19:32:00,69.0,56.0,29.99,NNW,333,0.0,0.0,64,0.00,,,0.00,,2013-07-28 23:32:00,
2013-07-28 19:43:00,69.0,56.0,29.99,NNW,333,0.0,0.0,63,0.00,,,0.00,,2013-07-28 23:43:00,
2013-07-28 19:53:00,69.0,57.0,30.00,NNW,333,0.0,0.0,65,0.00,,,0.00,,2013-07-28 23:53:00,
2013-07-28 20:03:00,69.0,57.0,30.01,NNE,26,0.0,2.0,65,0.00,,,0.00,,2013-07-29 00:03:00,
2013-07-28 20:22:00,68.0,57.0,30.01,NNE,26,0.0,0.0,67,0.00,,,0.00,,2013-07-29 00:22:00,
2013-07-28 20:32:00,68.0,57.0,30.01,NNE,26,0.0,0.0,67,0.00,,,0.00,,2013-07-29 00:32:00,
2013-07-28 20:52:00,67.0,58.0,30.01,NNE,26,0.0,0.0,74,0.00,,,0.00,,2013-07-29 00:52:00,
2013-07-28 21:02:00,66.0,57.0,30.02,NNE,26,0.0,0.0,74,0.00,,,0.00,,2013-07-29 01:02:00,
2013-07-28 21:13:00,65.0,57.0,30.02,NNE,26,0.0,0.0,75,0.00,,,0.00,,2013-07-29 01:13:00,
2013-07-28 21:27:00,65.0,57.0,30.02,NNE,26,0.0,0.0,75,0.00,,,0.00,,2013-07-29 01:27:00,
2013-07-28 21:35:00,63.0,56.0,30.02,NNE,26,0.0,0.0,78,0.00,,,0.00,,2013-07-29 01:35:00,
2013-07-28 22:05:00,61.0,55.0,30.02,NNE,26,0.0,0.0,81,0.00,,,0.00,,2013-07-29 02:05:00,
2013-07-28 22:14:00,60.0,54.0,30.03,NNE,26,0.0,0.0,82,0.00,,,0.00,,2013-07-29 02:14:00,
2013-07-28 22:36:00,59.0,54.0,30.03,NNE,26,0.0,0.0,85,0.00,,,0.00,,2013-07-29 02:36:00,
2013-07-28 22:46:00,59.0,55.0,30.03,NNE,26,0.0,0.0,86,0.00,,,0.00,,2013-07-29 02:46:00,
2013-07-28 22:56:00,58.0,54.0,30.04,NNE,26,0.0,0.0,87,0.00,,,0.00,,2013-07-29 02:56:00,
2013-07-28 23:03:00,58.0,54.0,30.04,NNE,26,0.0,0.0,87,0.00,,,0.00,,2013-07-29 03:03:00,
2013-07-28 23:24:00,57.0,54.0,30.04,NNE,26,0.0,0.0,89,0.00,,,0.00,,2013-07-29 03:24:00,
2013-07-28 23:36:00,56.0,53.0,30.04,NNE,26,0.0,0.0,90,0.00,,,0.00,,2013-07-29 03:36:00,
2013-07-28 23:48:00,56.0,53.0,30.04,NNE,26,0.0,0.0,91,0.00,,,0.00,,2013-07-29 03:48:00,
2013-07-28 23:55:00,56.0,54.0,30.04,NNE,26,0.0,0.0,92,0.00,,,0.00,,2013-07-29 03:55:00,